Find Local Weather

World > North America > United States > Michigan

Cannonsburg, Michigan Regional Weather

Lat: 43.05N, Lon: 85.47W
Wx Zone: MIZ057
Feedback
Expires:201812111000;;621798
ASUS43 KDTX 110910
RWRMI 
MICHIGAN HOURLY REGIONAL WEATHER ROUNDUP
NATIONAL WEATHER SERVICE DETROIT/PONTIAC MI
ISSUED BY NATIONAL WEATHER SERVICE GRAND RAPIDS MI
400 AM EST TUE DEC 11 2018

NOTE: "FAIR" INDICATES FEW OR NO CLOUDS BELOW 12,000 FEET WITH NO
SIGNIFICANT WEATHER AND/OR OBSTRUCTION TO VISIBILITY.


MIZ043>046-050>051-056>058-064>065-071>073-077>080-111000-
SOUTHWEST LOWER MICHIGAN
  
CITY           SKY/WX    TMP DP  RH WIND       PRES   REMARKS
BATTLE CREEK   CLOUDY    28  24  85 SW14      30.05F WCI  17          
BENTON HARBOR  CLOUDY    28  24  85 S7        30.08F FOG     WCI  21  
BIG RAPIDS     CLOUDY    32  26  78 W12       29.95F WCI  23          
COLDWATER      CLOUDY    27  27  97 SW9       30.08F FOG     WCI  18  
HOLLAND        CLOUDY    35  25  66 W12G21    30.04F WCI  27          
GRAND RAPIDS   CLOUDY    34  25  69 MISG      30.01F                  
KALAMAZOO      CLOUDY    28  24  85 SW12G21   30.06F FOG     WCI  18  
MOUNT PLEASANT CLOUDY    33  25  71 SW10      29.95F WCI  25          
MUSKEGON       CLOUDY    34  24  67 W12       30.02S WCI  25          
STURGIS        CLOUDY    27  25  90 SW10      30.08F FOG     WCI  18  
$$

SKY/WX - Weather  TMP - Temperature  DP - Dew Point  RH - Relative Humidity
WIND - Wind Direction/Speed PRES - Barometric Pressure